| time (UTC) | temp C | wind direction | speed KPH | gust KPH | rain 1hr cm | rain 24hr cm | rain mn cm | humidity % | barometer mb |
| 20260504044541 | 13 | 226 | 3.2 | 11.3 | 0.00 | 0.05 | 0.05 | 67 | 1003.2 |
| 20260504043039 | 13 | 201 | 6.4 | 12.9 | 0.00 | 0.05 | 0.05 | 66 | 1003.2 |
| 20260504041539 | 13 | 199 | 8.0 | 14.5 | 0.00 | 0.05 | 0.05 | 65 | 1003.2 |
| 20260504040038 | 13 | 190 | 8.0 | 16.1 | 0.00 | 0.05 | 0.05 | 64 | 1003.1 |
| 20260504034538 | 15 | 168 | 9.7 | 17.7 | 0.00 | 0.05 | 0.05 | 62 | 1003.1 |
| 20260504033039 | 15 | 216 | 8.0 | 14.5 | 0.00 | 0.05 | 0.05 | 62 | 1003.2 |
| 20260504031537 | 15 | 127 | 8.0 | 16.1 | 0.00 | 0.05 | 0.05 | 60 | 1003.2 |
| 20260504030039 | 15 | 168 | 8.0 | 14.5 | 0.00 | 0.05 | 0.05 | 60 | 1003.2 |
| 20260504024535 | 15 | 162 | 8.0 | 12.9 | 0.00 | 0.05 | 0.05 | 60 | 1003.1 |
| 20260504023035 | 15 | 161 | 6.4 | 8.0 | 0.00 | 0.05 | 0.05 | 59 | 1003.1 |
| 20260504021535 | 16 | 185 | 4.8 | 16.1 | 0.00 | 0.05 | 0.05 | 57 | 1003.2 |
| 20260504020036 | 16 | 152 | 8.0 | 14.5 | 0.00 | 0.05 | 0.05 | 54 | 1003.0 |
| 20260504014548 | 17 | 179 | 6.4 | 11.3 | 0.00 | 0.05 | 0.05 | 53 | 1002.9 |
| 20260504013040 | 17 | 169 | 4.8 | 9.7 | 0.00 | 0.05 | 0.05 | 52 | 1002.8 |
| 20260504011533 | 17 | 174 | 4.8 | 9.7 | 0.00 | 0.05 | 0.05 | 52 | 1002.8 |
| 20260504010032 | 18 | 181 | 4.8 | 8.0 | 0.00 | 0.05 | 0.05 | 48 | 1002.7 |
| 20260504004533 | 18 | 197 | 6.4 | 9.7 | 0.00 | 0.05 | 0.05 | 47 | 1002.5 |
| 20260504003031 | 18 | 196 | 8.0 | 12.9 | 0.00 | 0.05 | 0.05 | 47 | 1002.5 |
| 20260504001533 | 19 | 197 | 9.7 | 14.5 | 0.00 | 0.05 | 0.05 | 45 | 1002.6 |
| 20260504000040 | 20 | 225 | 11.3 | 16.1 | 0.00 | 0.05 | 0.05 | 43 | 1002.7 |
| 20260503234529 | 20 | 203 | 11.3 | 24.1 | 0.00 | 0.05 | 0.05 | 44 | 1002.6 |
| 20260503233029 | 20 | 235 | 17.7 | 27.4 | 0.00 | 0.05 | 0.05 | 42 | 1002.7 |
| 20260503231526 | 20 | 192 | 22.5 | 33.8 | 0.00 | 0.05 | 0.05 | 41 | 1002.8 |
| 20260503230026 | 20 | 237 | 14.5 | 29.0 | 0.00 | 0.05 | 0.05 | 44 | 1002.9 |
| 20260503224528 | 20 | 190 | 16.1 | 38.6 | 0.00 | 0.05 | 0.05 | 44 | 1002.9 |
| 20260503223021 | 20 | 215 | 22.5 | 32.2 | 0.00 | 0.05 | 0.05 | 44 | 1003.2 |
| 20260503221520 | 19 | 202 | 22.5 | 33.8 | 0.00 | 0.05 | 0.05 | 46 | 1003.2 |
| 20260503220021 | 19 | 184 | 22.5 | 40.2 | 0.00 | 0.05 | 0.05 | 44 | 1003.2 |
| 20260503214524 | 19 | 201 | 20.9 | 35.4 | 0.00 | 0.05 | 0.05 | 44 | 1003.3 |
| 20260503213015 | 18 | 224 | 27.4 | 45.1 | 0.00 | 0.05 | 0.05 | 44 | 1003.5 |
| 20260503211513 | 18 | 207 | 20.9 | 46.7 | 0.00 | 0.05 | 0.05 | 45 | 1003.6 |
| 20260503210032 | 18 | 152 | 22.5 | 41.8 | 0.00 | 0.05 | 0.05 | 45 | 1003.8 |
| 20260503204511 | 18 | 190 | 29.0 | 51.5 | 0.00 | 0.05 | 0.05 | 46 | 1004.1 |
| 20260503203013 | 18 | 216 | 29.0 | 48.3 | 0.00 | 0.05 | 0.05 | 46 | 1004.5 |
| 20260503201505 | 17 | 195 | 20.9 | 45.1 | 0.00 | 0.05 | 0.05 | 49 | 1004.7 |
| 20260503200003 | 17 | 203 | 33.8 | 51.5 | 0.00 | 0.05 | 0.05 | 47 | 1004.9 |
| 20260503194501 | 17 | 185 | 22.5 | 46.7 | 0.00 | 0.05 | 0.05 | 47 | 1005.2 |
| 20260503193100 | 17 | 167 | 30.6 | 51.5 | 0.00 | 0.05 | 0.05 | 45 | 1005.4 |
| 20260503191604 | 17 | 208 | 25.7 | 46.7 | 0.00 | 0.05 | 0.05 | 46 | 1005.6 |
| 20260503190059 | 16 | 205 | 25.7 | 41.8 | 0.00 | 0.05 | 0.05 | 54 | 1006.0 |
| 20260503184554 | 15 | 177 | 25.7 | 41.8 | 0.00 | 0.05 | 0.05 | 59 | 1006.3 |
| 20260503183052 | 14 | 181 | 27.4 | 45.1 | 0.00 | 0.05 | 0.05 | 60 | 1006.7 |
| 20260503181545 | 14 | 187 | 27.4 | 49.9 | 0.00 | 0.05 | 0.05 | 58 | 1006.7 |
| 20260503180055 | 14 | 180 | 27.4 | 49.9 | 0.00 | 0.05 | 0.05 | 56 | 1006.7 |
| 20260503174543 | 14 | 143 | 25.7 | 49.9 | 0.00 | 0.05 | 0.05 | 56 | 1006.8 |
| 20260503173117 | 15 | 177 | 20.9 | 48.3 | 0.00 | 0.05 | 0.05 | 56 | 1007.0 |
| 20260503171545 | 14 | 145 | 29.0 | 43.5 | 0.00 | 0.05 | 0.05 | 56 | 1007.2 |
| 20260503120109 | 10 | 183 | 17.7 | 32.2 | 0.00 | 0.00 | 0.00 | 58 | 1011.3 |
| 20260503081550 | 7 | 158 | 8.0 | 16.1 | 0.00 | 0.00 | 0.00 | 60 | 1012.0 |
| 20260503071539 | 7 | 205 | 9.7 | 17.7 | 0.00 | 0.00 | 0.00 | 59 | 1012.3 |